Wetterdaten: Woche 03.04.23 - 09.04.23 (KW14)
Datum Zeit Temp. I. Temp. A. Feuchte I. Feuchte A. Luftdruck Regen Wind Richtung Sonnenschein Solar Taupunkt Windchill Windböen
03.04.2023 00:00 20,8 °C 1,5 °C 52 % 81 % 1028,9 hPa 0,0 l/m² 9,3 km/h (2 Bft) N 0,00 h 0 W/m² -1,5 °C -1,2 °C 15,7 km/h (3 Bft)
03.04.2023 01:00 20,8 °C 0,8 °C 52 % 83 % 1029,2 hPa 0,0 l/m² 7,6 km/h (2 Bft) N 0,00 h 0 W/m² -1,8 °C -0,8 °C 12,4 km/h (2 Bft)
03.04.2023 02:00 20,8 °C 0,4 °C 52 % 85 % 1029,5 hPa 0,0 l/m² 4,5 km/h (1 Bft) N-NO 0,00 h 0 W/m² -1,8 °C 0,3 °C 9,0 km/h (2 Bft)
03.04.2023 03:00 20,9 °C -0,3 °C 52 % 85 % 1029,8 hPa 0,0 l/m² 2,3 km/h (1 Bft) N 0,00 h 0 W/m² -2,4 °C -0,3 °C 5,5 km/h (2 Bft)
03.04.2023 04:00 20,9 °C -1,6 °C 52 % 88 % 1030,3 hPa 0,0 l/m² 4,1 km/h (1 Bft) W-SW 0,00 h 0 W/m² -3,3 °C -1,6 °C 6,2 km/h (2 Bft)
03.04.2023 05:00 21,0 °C -2,2 °C 51 % 90 % 1030,6 hPa 0,0 l/m² 2,0 km/h (1 Bft) W-SW 0,00 h 0 W/m² -3,6 °C -2,2 °C 3,3 km/h (1 Bft)
03.04.2023 06:00 21,1 °C -2,1 °C 51 % 90 % 1030,9 hPa 0,0 l/m² 1,7 km/h (1 Bft) W-SW 0,00 h 8 W/m² -3,6 °C -2,1 °C 3,6 km/h (1 Bft)
03.04.2023 07:00 21,1 °C -1,3 °C 51 % 88 % 1031,3 hPa 0,0 l/m² 5,5 km/h (2 Bft) N-NO 0,50 h 57 W/m² -3,1 °C -1,9 °C 9,6 km/h (2 Bft)
03.04.2023 08:00 21,1 °C 0,4 °C 51 % 84 % 1031,7 hPa 0,0 l/m² 8,1 km/h (2 Bft) N 1,00 h 236 W/m² -2,0 °C -1,3 °C 13,6 km/h (3 Bft)
03.04.2023 09:00 21,2 °C 2,4 °C 51 % 78 % 1032,1 hPa 0,0 l/m² 9,4 km/h (2 Bft) N 1,00 h 367 W/m² -1,0 °C -0,1 °C 15,7 km/h (3 Bft)
03.04.2023 10:00 21,3 °C 3,0 °C 51 % 73 % 1032,2 hPa 0,0 l/m² 10,8 km/h (2 Bft) NO 1,00 h 234 W/m² -1,3 °C -0,5 °C 18,0 km/h (3 Bft)
03.04.2023 11:00 21,2 °C 4,4 °C 51 % 65 % 1032,2 hPa 0,0 l/m² 12,9 km/h (3 Bft) NO 1,00 h 576 W/m² -1,7 °C -0,3 °C 20,4 km/h (4 Bft)
03.04.2023 12:00 21,1 °C 5,9 °C 51 % 60 % 1032,0 hPa 0,0 l/m² 10,8 km/h (2 Bft) NO 1,00 h 714 W/m² -1,3 °C 2,6 °C 17,3 km/h (3 Bft)
03.04.2023 13:00 21,1 °C 5,4 °C 51 % 59 % 1031,6 hPa 0,0 l/m² 9,5 km/h (2 Bft) N 1,00 h 330 W/m² -1,9 °C 2,8 °C 15,2 km/h (3 Bft)
03.04.2023 14:00 21,2 °C 5,6 °C 51 % 57 % 1031,2 hPa 0,0 l/m² 9,8 km/h (2 Bft) N 1,00 h 389 W/m² -2,3 °C 2,9 °C 15,6 km/h (3 Bft)
03.04.2023 15:00 21,2 °C 5,3 °C 51 % 58 % 1031,0 hPa 0,0 l/m² 10,8 km/h (2 Bft) N 1,00 h 215 W/m² -2,3 °C 2,1 °C 16,6 km/h (3 Bft)
03.04.2023 16:00 21,1 °C 5,5 °C 51 % 57 % 1030,8 hPa 0,0 l/m² 9,2 km/h (2 Bft) N-NO 1,00 h 219 W/m² -2,4 °C 3,2 °C 15,1 km/h (3 Bft)
03.04.2023 17:00 21,1 °C 5,0 °C 51 % 57 % 1030,6 hPa 0,0 l/m² 8,1 km/h (2 Bft) NO 1,00 h 122 W/m² -2,7 °C 3,5 °C 13,3 km/h (3 Bft)
03.04.2023 18:00 21,0 °C 4,5 °C 51 % 58 % 1030,5 hPa 0,0 l/m² 6,8 km/h (2 Bft) NO 0,40 h 48 W/m² -3,0 °C 3,7 °C 11,6 km/h (2 Bft)
03.04.2023 19:00 20,9 °C 4,0 °C 51 % 58 % 1030,6 hPa 0,0 l/m² 4,8 km/h (1 Bft) NO 0,00 h 12 W/m² -3,4 °C 3,8 °C 8,2 km/h (2 Bft)
03.04.2023 20:00 20,9 °C 3,7 °C 51 % 62 % 1030,7 hPa 0,0 l/m² 5,2 km/h (1 Bft) N-NO 0,00 h 0 W/m² -2,9 °C 3,5 °C 8,7 km/h (2 Bft)
03.04.2023 21:00 21,0 °C 3,3 °C 51 % 61 % 1030,9 hPa 0,0 l/m² 6,6 km/h (2 Bft) N-NO 0,00 h 0 W/m² -3,5 °C 2,6 °C 11,1 km/h (2 Bft)
03.04.2023 22:00 21,0 °C 3,0 °C 51 % 63 % 1030,8 hPa 0,0 l/m² 3,7 km/h (1 Bft) N-NO 0,00 h 0 W/m² -3,2 °C 2,9 °C 6,3 km/h (2 Bft)
03.04.2023 23:00 21,0 °C 2,7 °C 51 % 68 % 1030,6 hPa 0,0 l/m² 3,8 km/h (1 Bft) N 0,00 h 0 W/m² -2,6 °C 2,7 °C 6,0 km/h (2 Bft)
04.04.2023 00:00 20,9 °C 2,4 °C 50 % 70 % 1030,2 hPa 0,0 l/m² 4,3 km/h (1 Bft) N 0,00 h 0 W/m² -2,4 °C 2,3 °C 7,3 km/h (2 Bft)
04.04.2023 01:00 21,0 °C 2,2 °C 50 % 73 % 1030,1 hPa 0,0 l/m² 5,2 km/h (1 Bft) N 0,00 h 0 W/m² -2,1 °C 2,0 °C 8,5 km/h (2 Bft)
04.04.2023 02:00 21,0 °C 1,9 °C 50 % 76 % 1029,9 hPa 0,0 l/m² 4,4 km/h (1 Bft) N-NO 0,00 h 0 W/m² -1,9 °C 1,8 °C 7,3 km/h (2 Bft)
04.04.2023 03:00 20,9 °C 1,7 °C 50 % 78 % 1029,8 hPa 0,0 l/m² 4,0 km/h (1 Bft) N-NO 0,00 h 0 W/m² -1,7 °C 1,7 °C 7,3 km/h (2 Bft)
04.04.2023 04:00 20,9 °C 1,4 °C 50 % 80 % 1029,5 hPa 0,0 l/m² 2,7 km/h (1 Bft) O-NO 0,00 h 0 W/m² -1,6 °C 1,3 °C 5,2 km/h (1 Bft)
04.04.2023 05:00 20,9 °C 1,0 °C 50 % 82 % 1029,2 hPa 0,0 l/m² 1,7 km/h (1 Bft) N-NO 0,00 h 0 W/m² -1,7 °C 1,0 °C 3,1 km/h (1 Bft)
04.04.2023 06:00 20,9 °C 0,5 °C 50 % 82 % 1029,0 hPa 0,0 l/m² 2,0 km/h (1 Bft) NW 0,00 h 8 W/m² -2,2 °C 0,5 °C 3,6 km/h (1 Bft)
04.04.2023 07:00 20,8 °C 0,2 °C 50 % 83 % 1029,2 hPa 0,0 l/m² 3,2 km/h (1 Bft) N 0,52 h 53 W/m² -2,4 °C 0,2 °C 5,0 km/h (1 Bft)
04.04.2023 08:00 20,9 °C 1,2 °C 50 % 80 % 1029,5 hPa 0,0 l/m² 4,5 km/h (1 Bft) N 1,00 h 160 W/m² -2,0 °C 1,1 °C 6,5 km/h (2 Bft)
04.04.2023 09:00 21,0 °C 2,1 °C 50 % 76 % 1029,5 hPa 0,0 l/m² 2,6 km/h (1 Bft) N-NW 1,00 h 303 W/m² -1,6 °C 2,1 °C 4,9 km/h (1 Bft)
04.04.2023 10:00 21,0 °C 3,4 °C 50 % 72 % 1029,3 hPa 0,0 l/m² 5,4 km/h (1 Bft) N-NW 1,00 h 273 W/m² -1,1 °C 2,9 °C 8,4 km/h (2 Bft)
04.04.2023 11:00 21,0 °C 3,8 °C 50 % 69 % 1029,3 hPa 0,0 l/m² 7,3 km/h (2 Bft) NW 1,00 h 259 W/m² -1,4 °C 2,4 °C 11,3 km/h (2 Bft)
04.04.2023 12:00 20,9 °C 4,9 °C 50 % 62 % 1029,2 hPa 0,0 l/m² 6,1 km/h (2 Bft) N-NW 1,00 h 387 W/m² -1,9 °C 4,0 °C 9,8 km/h (2 Bft)
04.04.2023 13:00 20,9 °C 5,5 °C 50 % 59 % 1028,6 hPa 0,0 l/m² 7,6 km/h (2 Bft) N-NW 1,00 h 495 W/m² -1,9 °C 4,2 °C 11,8 km/h (2 Bft)
04.04.2023 14:00 21,1 °C 6,0 °C 50 % 56 % 1028,0 hPa 0,0 l/m² 9,1 km/h (2 Bft) N-NW 1,00 h 453 W/m² -2,1 °C 3,7 °C 13,6 km/h (3 Bft)
04.04.2023 15:00 21,1 °C 6,3 °C 50 % 55 % 1027,5 hPa 0,0 l/m² 6,2 km/h (2 Bft) NW 1,00 h 401 W/m² -2,2 °C 5,6 °C 10,3 km/h (2 Bft)
04.04.2023 16:00 21,0 °C 6,5 °C 50 % 52 % 1027,1 hPa 0,0 l/m² 5,8 km/h (2 Bft) N-NW 1,00 h 441 W/m² -2,7 °C 5,7 °C 8,9 km/h (2 Bft)
04.04.2023 17:00 21,1 °C 6,7 °C 50 % 50 % 1026,6 hPa 0,0 l/m² 3,9 km/h (1 Bft) NW 1,00 h 332 W/m² -2,9 °C 6,5 °C 6,4 km/h (2 Bft)
04.04.2023 18:00 21,1 °C 6,2 °C 50 % 52 % 1026,3 hPa 0,0 l/m² 5,4 km/h (2 Bft) N-NW 1,00 h 136 W/m² -3,0 °C 6,0 °C 8,3 km/h (2 Bft)
04.04.2023 19:00 21,1 °C 4,7 °C 50 % 58 % 1026,0 hPa 0,0 l/m² 2,9 km/h (1 Bft) NW 0,18 h 32 W/m² -2,8 °C 4,7 °C 4,6 km/h (1 Bft)
04.04.2023 20:00 21,1 °C 2,0 °C 50 % 76 % 1026,0 hPa 0,0 l/m² 0,1 km/h (0 Bft) NW 0,00 h 0 W/m² -1,8 °C 2,0 °C 0,3 km/h (0 Bft)
04.04.2023 21:00 21,1 °C 0,7 °C 50 % 82 % 1026,2 hPa 0,0 l/m² 0,6 km/h (0 Bft) NW 0,00 h 0 W/m² -2,0 °C 0,7 °C 0,8 km/h (0 Bft)
04.04.2023 22:00 21,1 °C 1,2 °C 50 % 80 % 1026,2 hPa 0,0 l/m² 1,2 km/h (1 Bft) NW 0,00 h 0 W/m² -1,8 °C 1,2 °C 2,1 km/h (1 Bft)
04.04.2023 23:00 21,1 °C 0,5 °C 50 % 81 % 1026,0 hPa 0,0 l/m² 3,2 km/h (1 Bft) W-SW 0,00 h 0 W/m² -2,3 °C 0,5 °C 4,5 km/h (1 Bft)
05.04.2023 00:00 21,0 °C -0,8 °C 50 % 84 % 1025,7 hPa 0,0 l/m² 1,9 km/h (1 Bft) W-SW 0,00 h 0 W/m² -3,2 °C -0,8 °C 2,9 km/h (1 Bft)
05.04.2023 01:00 21,1 °C -1,9 °C 50 % 86 % 1025,4 hPa 0,0 l/m² 2,0 km/h (1 Bft) W-SW 0,00 h 0 W/m² -3,8 °C -1,9 °C 2,9 km/h (1 Bft)
05.04.2023 02:00 21,1 °C -2,4 °C 50 % 89 % 1025,1 hPa 0,0 l/m² 0,5 km/h (0 Bft) W-SW 0,00 h 0 W/m² -4,0 °C -2,4 °C 1,1 km/h (1 Bft)
05.04.2023 03:00 21,1 °C -2,4 °C 49 % 89 % 1024,9 hPa 0,0 l/m² 0,8 km/h (0 Bft) W-SW 0,00 h 0 W/m² -3,9 °C -2,4 °C 1,6 km/h (1 Bft)
05.04.2023 04:00 21,2 °C -2,0 °C 49 % 90 % 1024,7 hPa 0,0 l/m² 3,2 km/h (1 Bft) W-SW 0,00 h 0 W/m² -3,4 °C -2,0 °C 4,8 km/h (1 Bft)
05.04.2023 05:00 21,3 °C -1,8 °C 49 % 90 % 1024,5 hPa 0,0 l/m² 2,7 km/h (1 Bft) W-SW 0,00 h 0 W/m² -3,2 °C -1,8 °C 3,9 km/h (1 Bft)
05.04.2023 06:00 21,2 °C -1,3 °C 49 % 89 % 1024,3 hPa 0,0 l/m² 1,6 km/h (1 Bft) W-SW 0,00 h 8 W/m² -2,8 °C -1,3 °C 2,5 km/h (1 Bft)
05.04.2023 07:00 21,3 °C -0,8 °C 49 % 89 % 1024,2 hPa 0,0 l/m² 1,4 km/h (1 Bft) W-SW 0,15 h 33 W/m² -2,4 °C -0,8 °C 2,5 km/h (1 Bft)
05.04.2023 08:00 21,3 °C 1,9 °C 49 % 83 % 1024,2 hPa 0,0 l/m² 2,8 km/h (1 Bft) NW 1,00 h 259 W/m² -0,7 °C 1,9 °C 5,3 km/h (1 Bft)
05.04.2023 09:00 21,3 °C 3,3 °C 49 % 78 % 1024,1 hPa 0,0 l/m² 2,9 km/h (1 Bft) W 0,98 h 283 W/m² -0,3 °C 3,3 °C 5,0 km/h (1 Bft)
05.04.2023 10:00 21,3 °C 5,6 °C 49 % 66 % 1023,9 hPa 0,0 l/m² 3,9 km/h (1 Bft) W-SW 1,00 h 559 W/m² -0,3 °C 5,4 °C 6,7 km/h (2 Bft)
05.04.2023 11:00 21,4 °C 7,0 °C 49 % 54 % 1023,7 hPa 0,0 l/m² 3,9 km/h (1 Bft) NO 1,00 h 597 W/m² -1,7 °C 6,9 °C 6,8 km/h (2 Bft)
05.04.2023 12:00 21,4 °C 7,9 °C 49 % 51 % 1023,5 hPa 0,0 l/m² 6,2 km/h (2 Bft) N-NW 1,02 h 880 W/m² -1,6 °C 7,3 °C 9,9 km/h (2 Bft)
05.04.2023 13:00 21,4 °C 8,1 °C 49 % 49 % 1023,2 hPa 0,0 l/m² 5,3 km/h (1 Bft) W 1,00 h 610 W/m² -2,1 °C 7,8 °C 8,8 km/h (2 Bft)
05.04.2023 14:00 21,4 °C 7,8 °C 49 % 52 % 1022,8 hPa 0,0 l/m² 5,8 km/h (2 Bft) SW 1,00 h 518 W/m² -1,6 °C 7,2 °C 8,4 km/h (2 Bft)
05.04.2023 15:00 21,4 °C 8,4 °C 49 % 51 % 1022,3 hPa 0,0 l/m² 7,6 km/h (2 Bft) W-SW 0,98 h 537 W/m² -1,1 °C 7,1 °C 11,8 km/h (2 Bft)
05.04.2023 16:00 21,3 °C 7,6 °C 49 % 50 % 1021,8 hPa 0,0 l/m² 4,4 km/h (1 Bft) S-SO 1,00 h 297 W/m² -2,0 °C 7,3 °C 7,0 km/h (2 Bft)
05.04.2023 17:00 21,3 °C 8,0 °C 49 % 49 % 1021,5 hPa 0,0 l/m² 4,1 km/h (1 Bft) S 1,00 h 235 W/m² -2,2 °C 7,8 °C 6,8 km/h (2 Bft)
05.04.2023 18:00 21,2 °C 7,3 °C 48 % 51 % 1021,4 hPa 0,0 l/m² 2,8 km/h (1 Bft) S 1,02 h 91 W/m² -2,2 °C 7,3 °C 4,4 km/h (1 Bft)
05.04.2023 19:00 21,1 °C 5,6 °C 48 % 64 % 1021,4 hPa 0,0 l/m² 3,5 km/h (1 Bft) S 0,00 h 22 W/m² -0,7 °C 5,6 °C 5,2 km/h (1 Bft)
05.04.2023 20:00 21,2 °C 4,2 °C 48 % 71 % 1021,6 hPa 0,0 l/m² 1,2 km/h (1 Bft) S 0,00 h 0 W/m² -0,5 °C 4,2 °C 2,3 km/h (1 Bft)
05.04.2023 21:00 21,2 °C 2,3 °C 48 % 78 % 1021,9 hPa 0,0 l/m² 0,7 km/h (0 Bft) S 0,00 h 0 W/m² -1,1 °C 2,3 °C 1,6 km/h (1 Bft)
05.04.2023 22:00 21,2 °C 0,3 °C 48 % 83 % 1021,7 hPa 0,0 l/m² 0,3 km/h (0 Bft) S 0,00 h 0 W/m² -2,3 °C 0,3 °C 0,6 km/h (0 Bft)
05.04.2023 23:00 21,2 °C -0,7 °C 49 % 85 % 1021,5 hPa 0,0 l/m² 0,2 km/h (0 Bft) S 0,00 h 0 W/m² -3,0 °C -0,7 °C 0,7 km/h (0 Bft)
06.04.2023 00:00 21,2 °C -1,3 °C 48 % 86 % 1021,5 hPa 0,0 l/m² 0,5 km/h (0 Bft) S 0,00 h 0 W/m² -3,3 °C -1,3 °C 0,7 km/h (0 Bft)
06.04.2023 01:00 21,3 °C -1,9 °C 48 % 88 % 1021,4 hPa 0,0 l/m² 0,0 km/h (0 Bft) S 0,00 h 0 W/m² -3,5 °C -1,9 °C 0,0 km/h (0 Bft)
06.04.2023 02:00 21,4 °C -2,3 °C 48 % 88 % 1021,2 hPa 0,0 l/m² 0,0 km/h (0 Bft) S 0,00 h 0 W/m² -4,0 °C -2,3 °C 0,0 km/h (0 Bft)
06.04.2023 03:00 21,4 °C -2,6 °C 48 % 89 % 1020,8 hPa 0,0 l/m² 0,0 km/h (0 Bft) S 0,00 h 0 W/m² -4,1 °C -2,6 °C 0,2 km/h (0 Bft)
06.04.2023 04:00 21,4 °C -3,1 °C 48 % 89 % 1020,6 hPa 0,0 l/m² 0,0 km/h (0 Bft) S 0,00 h 0 W/m² -4,6 °C -3,1 °C 0,0 km/h (0 Bft)
06.04.2023 05:00 21,6 °C -3,6 °C 48 % 90 % 1020,5 hPa 0,0 l/m² 0,3 km/h (0 Bft) S 0,00 h 0 W/m² -5,0 °C -3,6 °C 0,6 km/h (0 Bft)
06.04.2023 06:00 21,5 °C -4,1 °C 48 % 91 % 1020,7 hPa 0,0 l/m² 0,2 km/h (0 Bft) S 0,00 h 9 W/m² -5,3 °C -4,1 °C 0,4 km/h (0 Bft)
06.04.2023 07:00 21,6 °C -3,4 °C 48 % 91 % 1020,9 hPa 0,0 l/m² 0,1 km/h (0 Bft) S 0,47 h 62 W/m² -4,7 °C -3,4 °C 0,1 km/h (0 Bft)
06.04.2023 08:00 21,6 °C -1,4 °C 48 % 90 % 1021,0 hPa 0,0 l/m² 0,0 km/h (0 Bft) S 1,00 h 230 W/m² -2,8 °C -1,4 °C 0,1 km/h (0 Bft)
06.04.2023 09:00 21,6 °C 2,7 °C 48 % 83 % 1021,0 hPa 0,0 l/m² 1,2 km/h (1 Bft) S 1,00 h 410 W/m² 0,1 °C 2,5 °C 2,3 km/h (1 Bft)
06.04.2023 10:00 21,7 °C 6,6 °C 48 % 67 % 1021,0 hPa 0,0 l/m² 7,5 km/h (2 Bft) S-SO 1,00 h 557 W/m² 0,8 °C 5,5 °C 10,1 km/h (2 Bft)
06.04.2023 11:00 21,8 °C 8,8 °C 48 % 59 % 1020,8 hPa 0,0 l/m² 7,7 km/h (2 Bft) S-SO 1,00 h 672 W/m² 1,3 °C 7,6 °C 11,0 km/h (2 Bft)
06.04.2023 12:00 21,7 °C 9,9 °C 48 % 51 % 1020,5 hPa 0,0 l/m² 8,2 km/h (2 Bft) SO 1,00 h 658 W/m² 0,3 °C 8,4 °C 11,5 km/h (2 Bft)
06.04.2023 13:00 21,7 °C 10,9 °C 48 % 48 % 1020,1 hPa 0,0 l/m² 9,8 km/h (2 Bft) S-SO 1,00 h 756 W/m² 0,3 °C 8,8 °C 14,1 km/h (3 Bft)
06.04.2023 14:00 21,7 °C 11,4 °C 48 % 45 % 1019,6 hPa 0,0 l/m² 8,7 km/h (2 Bft) S 1,00 h 719 W/m² -0,2 °C 9,7 °C 12,6 km/h (2 Bft)
06.04.2023 15:00 21,6 °C 11,6 °C 48 % 43 % 1019,1 hPa 0,0 l/m² 6,1 km/h (2 Bft) S-SO 1,00 h 627 W/m² -0,4 °C 10,8 °C 9,2 km/h (2 Bft)
06.04.2023 16:00 21,6 °C 12,1 °C 48 % 41 % 1018,8 hPa 0,0 l/m² 5,9 km/h (2 Bft) S-SO 1,00 h 502 W/m² -0,7 °C 11,2 °C 8,7 km/h (2 Bft)
06.04.2023 17:00 21,6 °C 11,7 °C 48 % 40 % 1018,5 hPa 0,0 l/m² 4,5 km/h (1 Bft) S-SO 1,00 h 341 W/m² -1,4 °C 11,6 °C 6,8 km/h (2 Bft)
06.04.2023 18:00 21,6 °C 11,0 °C 48 % 45 % 1018,5 hPa 0,0 l/m² 9,3 km/h (2 Bft) O 1,00 h 153 W/m² -0,6 °C 8,9 °C 12,4 km/h (2 Bft)
06.04.2023 19:00 21,5 °C 8,5 °C 48 % 52 % 1018,5 hPa 0,0 l/m² 7,6 km/h (2 Bft) O-NO 0,05 h 23 W/m² -0,7 °C 7,6 °C 10,3 km/h (2 Bft)
06.04.2023 20:00 21,4 °C 6,0 °C 48 % 64 % 1018,9 hPa 0,0 l/m² 6,3 km/h (2 Bft) O-NO 0,00 h 0 W/m² -0,2 °C 5,8 °C 8,4 km/h (2 Bft)
06.04.2023 21:00 21,4 °C 4,6 °C 48 % 70 % 1019,2 hPa 0,0 l/m² 5,5 km/h (2 Bft) O-NO 0,00 h 0 W/m² -0,3 °C 4,5 °C 7,1 km/h (2 Bft)
06.04.2023 22:00 21,4 °C 3,1 °C 49 % 74 % 1019,2 hPa 0,0 l/m² 2,7 km/h (1 Bft) O-NO 0,00 h 0 W/m² -1,1 °C 3,1 °C 4,0 km/h (1 Bft)
06.04.2023 23:00 21,4 °C 1,4 °C 49 % 82 % 1019,1 hPa 0,0 l/m² 0,4 km/h (0 Bft) O-NO 0,00 h 0 W/m² -1,3 °C 1,4 °C 1,0 km/h (0 Bft)
07.04.2023 00:00 21,4 °C 0,4 °C 48 % 85 % 1019,0 hPa 0,0 l/m² 0,1 km/h (0 Bft) O-NO 0,00 h 0 W/m² -1,8 °C 0,4 °C 0,3 km/h (0 Bft)
07.04.2023 01:00 21,4 °C -0,4 °C 48 % 88 % 1018,9 hPa 0,0 l/m² 0,1 km/h (0 Bft) O-NO 0,00 h 0 W/m² -2,1 °C -0,4 °C 0,3 km/h (0 Bft)
07.04.2023 02:00 21,5 °C -1,1 °C 48 % 89 % 1018,6 hPa 0,0 l/m² 0,0 km/h (0 Bft) O-NO 0,00 h 0 W/m² -2,7 °C -1,1 °C 0,0 km/h (0 Bft)
07.04.2023 03:00 21,6 °C -1,7 °C 48 % 91 % 1018,3 hPa 0,0 l/m² 0,0 km/h (0 Bft) O-NO 0,00 h 0 W/m² -3,0 °C -1,7 °C 0,1 km/h (0 Bft)
07.04.2023 04:00 21,6 °C -1,8 °C 48 % 90 % 1017,9 hPa 0,0 l/m² 2,0 km/h (1 Bft) O-NO 0,00 h 0 W/m² -3,1 °C -1,8 °C 3,1 km/h (1 Bft)
07.04.2023 05:00 21,7 °C -2,1 °C 48 % 90 % 1017,8 hPa 0,0 l/m² 0,4 km/h (0 Bft) O-NO 0,00 h 0 W/m² -3,4 °C -2,1 °C 0,7 km/h (0 Bft)
07.04.2023 06:00 21,7 °C -2,1 °C 48 % 90 % 1017,9 hPa 0,0 l/m² 0,3 km/h (0 Bft) O-NO 0,00 h 8 W/m² -3,5 °C -2,1 °C 0,7 km/h (0 Bft)
07.04.2023 07:00 21,7 °C -1,9 °C 48 % 90 % 1018,2 hPa 0,0 l/m² 0,0 km/h (0 Bft) O-NO 0,33 h 53 W/m² -3,4 °C -1,9 °C 0,1 km/h (0 Bft)
07.04.2023 08:00 21,8 °C 0,7 °C 48 % 87 % 1018,3 hPa 0,0 l/m² 1,4 km/h (1 Bft) O-NO 1,00 h 213 W/m² -1,2 °C 0,7 °C 2,2 km/h (1 Bft)
07.04.2023 09:00 21,8 °C 5,3 °C 48 % 73 % 1018,4 hPa 0,0 l/m² 7,0 km/h (2 Bft) O 1,00 h 392 W/m² 0,7 °C 4,4 °C 9,8 km/h (2 Bft)
07.04.2023 10:00 21,8 °C 8,0 °C 47 % 61 % 1018,7 hPa 0,0 l/m² 10,5 km/h (2 Bft) O 1,00 h 558 W/m² 0,9 °C 5,1 °C 14,3 km/h (3 Bft)
07.04.2023 11:00 21,8 °C 9,9 °C 47 % 55 % 1018,8 hPa 0,0 l/m² 11,7 km/h (2 Bft) O 1,00 h 581 W/m² 1,3 °C 6,7 °C 15,6 km/h (3 Bft)
07.04.2023 12:00 21,8 °C 10,8 °C 47 % 52 % 1018,6 hPa 0,0 l/m² 8,5 km/h (2 Bft) O-NO 1,00 h 565 W/m² 1,3 °C 9,3 °C 13,6 km/h (3 Bft)
07.04.2023 13:00 21,8 °C 11,5 °C 48 % 52 % 1018,4 hPa 0,0 l/m² 6,9 km/h (2 Bft) O 1,00 h 557 W/m² 1,9 °C 10,5 °C 11,1 km/h (2 Bft)
07.04.2023 14:00 21,8 °C 12,2 °C 48 % 49 % 1018,3 hPa 0,0 l/m² 5,8 km/h (2 Bft) NO 1,00 h 607 W/m² 1,8 °C 11,7 °C 10,2 km/h (2 Bft)
07.04.2023 15:00 21,8 °C 12,4 °C 48 % 46 % 1018,3 hPa 0,0 l/m² 7,2 km/h (2 Bft) N-NO 1,00 h 530 W/m² 1,1 °C 11,5 °C 12,2 km/h (2 Bft)
07.04.2023 16:00 21,7 °C 12,8 °C 48 % 45 % 1018,0 hPa 0,0 l/m² 7,8 km/h (2 Bft) NO 1,00 h 514 W/m² 1,0 °C 11,6 °C 13,3 km/h (3 Bft)
07.04.2023 17:00 21,7 °C 12,4 °C 48 % 45 % 1018,0 hPa 0,0 l/m² 7,2 km/h (2 Bft) N-NO 1,00 h 339 W/m² 0,8 °C 11,7 °C 11,7 km/h (2 Bft)
07.04.2023 18:00 21,7 °C 11,1 °C 48 % 49 % 1018,4 hPa 0,0 l/m² 10,2 km/h (2 Bft) N 1,00 h 123 W/m² 0,7 °C 8,8 °C 15,4 km/h (3 Bft)
07.04.2023 19:00 21,7 °C 9,2 °C 48 % 52 % 1019,2 hPa 0,0 l/m² 9,1 km/h (2 Bft) N 0,37 h 36 W/m² -0,1 °C 7,4 °C 14,2 km/h (3 Bft)
07.04.2023 20:00 21,6 °C 7,4 °C 48 % 61 % 1020,0 hPa 0,0 l/m² 6,0 km/h (2 Bft) N-NO 0,00 h 6 W/m² 0,4 °C 7,0 °C 10,9 km/h (2 Bft)
07.04.2023 21:00 21,5 °C 6,6 °C 48 % 78 % 1020,7 hPa 0,0 l/m² 5,8 km/h (2 Bft) N-NO 0,00 h 0 W/m² 3,0 °C 6,3 °C 10,1 km/h (2 Bft)
07.04.2023 22:00 21,4 °C 5,9 °C 48 % 85 % 1021,1 hPa 0,0 l/m² 6,1 km/h (2 Bft) N-NO 0,00 h 0 W/m² 3,6 °C 5,5 °C 10,2 km/h (2 Bft)
07.04.2023 23:00 21,5 °C 5,5 °C 48 % 89 % 1021,2 hPa 0,0 l/m² 5,6 km/h (2 Bft) N 0,00 h 0 W/m² 3,8 °C 5,2 °C 8,6 km/h (2 Bft)
08.04.2023 00:00 21,6 °C 5,3 °C 48 % 90 % 1021,1 hPa 0,2 l/m² 7,1 km/h (2 Bft) N-NW 0,00 h 0 W/m² 3,8 °C 4,6 °C 10,2 km/h (2 Bft)
08.04.2023 01:00 21,5 °C 5,2 °C 48 % 91 % 1021,3 hPa 0,6 l/m² 6,9 km/h (2 Bft) N-NW 0,00 h 0 W/m² 3,9 °C 4,5 °C 10,1 km/h (2 Bft)
08.04.2023 02:00 21,5 °C 5,1 °C 48 % 92 % 1021,2 hPa 0,4 l/m² 6,0 km/h (2 Bft) N-NW 0,00 h 0 W/m² 3,9 °C 4,7 °C 9,3 km/h (2 Bft)
08.04.2023 03:00 21,6 °C 5,0 °C 48 % 93 % 1021,3 hPa 0,0 l/m² 6,9 km/h (2 Bft) N-NW 0,00 h 0 W/m² 3,9 °C 4,0 °C 11,0 km/h (2 Bft)
08.04.2023 04:00 21,6 °C 4,9 °C 48 % 93 % 1021,3 hPa 0,0 l/m² 6,7 km/h (2 Bft) N-NW 0,00 h 0 W/m² 3,9 °C 4,2 °C 10,9 km/h (2 Bft)
08.04.2023 05:00 21,5 °C 4,8 °C 48 % 93 % 1021,4 hPa 0,2 l/m² 8,2 km/h (2 Bft) N-NW 0,00 h 0 W/m² 3,8 °C 3,2 °C 13,1 km/h (3 Bft)
08.04.2023 06:00 21,4 °C 4,9 °C 48 % 94 % 1021,7 hPa 0,0 l/m² 7,4 km/h (2 Bft) N-NW 0,00 h 5 W/m² 4,0 °C 3,6 °C 11,8 km/h (2 Bft)
08.04.2023 07:00 21,4 °C 5,1 °C 48 % 94 % 1022,2 hPa 0,0 l/m² 7,7 km/h (2 Bft) N-NW 0,00 h 13 W/m² 4,2 °C 3,8 °C 12,5 km/h (2 Bft)
08.04.2023 08:00 21,4 °C 5,3 °C 48 % 94 % 1022,6 hPa 0,0 l/m² 6,6 km/h (2 Bft) N-NW 0,00 h 19 W/m² 4,4 °C 4,4 °C 11,1 km/h (2 Bft)
08.04.2023 09:00 21,4 °C 5,6 °C 48 % 94 % 1023,0 hPa 0,2 l/m² 6,4 km/h (2 Bft) N-NW 0,30 h 51 W/m² 4,7 °C 4,7 °C 11,0 km/h (2 Bft)
08.04.2023 10:00 21,4 °C 6,3 °C 48 % 93 % 1023,4 hPa 0,0 l/m² 8,5 km/h (2 Bft) N 1,00 h 105 W/m² 5,3 °C 4,5 °C 13,7 km/h (3 Bft)
08.04.2023 11:00 21,3 °C 6,8 °C 48 % 93 % 1024,0 hPa 0,0 l/m² 5,7 km/h (2 Bft) N 1,00 h 144 W/m² 5,7 °C 6,3 °C 9,8 km/h (2 Bft)
08.04.2023 12:00 21,3 °C 8,8 °C 48 % 88 % 1024,1 hPa 0,0 l/m² 5,6 km/h (2 Bft) N-NW 1,00 h 306 W/m² 6,8 °C 8,4 °C 9,5 km/h (2 Bft)
08.04.2023 13:00 21,3 °C 9,7 °C 48 % 80 % 1024,0 hPa 0,0 l/m² 8,7 km/h (2 Bft) N 1,00 h 286 W/m² 6,5 °C 8,1 °C 13,3 km/h (3 Bft)
08.04.2023 14:00 21,3 °C 9,3 °C 48 % 82 % 1024,2 hPa 0,0 l/m² 10,1 km/h (2 Bft) N-NW 1,00 h 129 W/m² 6,4 °C 6,8 °C 14,8 km/h (3 Bft)
08.04.2023 15:00 21,5 °C 9,4 °C 48 % 84 % 1024,3 hPa 0,0 l/m² 10,3 km/h (2 Bft) N-NW 1,00 h 206 W/m² 6,9 °C 6,9 °C 15,6 km/h (3 Bft)
08.04.2023 16:00 21,6 °C 9,6 °C 47 % 83 % 1024,2 hPa 0,0 l/m² 12,5 km/h (2 Bft) N-NW 1,00 h 194 W/m² 6,9 °C 5,9 °C 17,8 km/h (3 Bft)
08.04.2023 17:00 21,4 °C 10,1 °C 46 % 79 % 1024,4 hPa 0,0 l/m² 9,0 km/h (2 Bft) N 1,00 h 154 W/m² 6,7 °C 8,2 °C 13,5 km/h (3 Bft)
08.04.2023 18:00 21,3 °C 10,3 °C 45 % 77 % 1024,7 hPa 0,0 l/m² 7,5 km/h (2 Bft) N 1,00 h 155 W/m² 6,5 °C 9,3 °C 11,5 km/h (2 Bft)
08.04.2023 19:00 21,3 °C 9,2 °C 47 % 83 % 1025,2 hPa 0,0 l/m² 9,7 km/h (2 Bft) N-NW 0,00 h 23 W/m² 6,4 °C 6,9 °C 14,2 km/h (3 Bft)
08.04.2023 20:00 21,4 °C 8,2 °C 50 % 86 % 1025,8 hPa 0,0 l/m² 8,4 km/h (2 Bft) O 0,00 h 0 W/m² 6,0 °C 6,6 °C 11,9 km/h (2 Bft)
08.04.2023 21:00 21,7 °C 7,5 °C 50 % 80 % 1026,4 hPa 0,0 l/m² 5,1 km/h (1 Bft) O-NO 0,00 h 0 W/m² 4,4 °C 6,9 °C 6,9 km/h (2 Bft)
08.04.2023 22:00 21,8 °C 7,1 °C 51 % 83 % 1026,5 hPa 0,0 l/m² 1,3 km/h (1 Bft) O-NO 0,00 h 0 W/m² 4,3 °C 7,1 °C 2,3 km/h (1 Bft)
08.04.2023 23:00 21,6 °C 6,9 °C 51 % 83 % 1026,6 hPa 0,0 l/m² 2,9 km/h (1 Bft) NO 0,00 h 0 W/m² 4,2 °C 6,9 °C 4,8 km/h (1 Bft)
09.04.2023 00:00 21,3 °C 6,4 °C 51 % 84 % 1026,5 hPa 0,0 l/m² 2,1 km/h (1 Bft) NO 0,00 h 0 W/m² 3,9 °C 6,4 °C 3,6 km/h (1 Bft)
09.04.2023 01:00 21,2 °C 6,1 °C 51 % 82 % 1026,6 hPa 0,0 l/m² 6,0 km/h (2 Bft) O-NO 0,00 h 0 W/m² 3,3 °C 5,6 °C 9,2 km/h (2 Bft)
09.04.2023 02:00 21,2 °C 5,3 °C 51 % 84 % 1026,7 hPa 0,0 l/m² 5,7 km/h (2 Bft) O-NO 0,00 h 0 W/m² 2,8 °C 5,2 °C 8,2 km/h (2 Bft)
09.04.2023 03:00 21,2 °C 3,1 °C 51 % 88 % 1026,8 hPa 0,0 l/m² 2,2 km/h (1 Bft) O-NO 0,00 h 0 W/m² 1,3 °C 3,1 °C 3,4 km/h (1 Bft)
09.04.2023 04:00 21,1 °C 1,1 °C 51 % 91 % 1026,8 hPa 0,0 l/m² 0,3 km/h (0 Bft) N 0,00 h 0 W/m² -0,2 °C 1,1 °C 0,7 km/h (0 Bft)
09.04.2023 05:00 21,1 °C 0,2 °C 51 % 92 % 1026,7 hPa 0,0 l/m² 0,3 km/h (0 Bft) N 0,00 h 0 W/m² -0,9 °C 0,2 °C 0,7 km/h (0 Bft)
09.04.2023 06:00 21,0 °C -0,2 °C 51 % 93 % 1027,0 hPa 0,0 l/m² 0,0 km/h (0 Bft) N 0,00 h 13 W/m² -1,2 °C -0,2 °C 0,0 km/h (0 Bft)
09.04.2023 07:00 21,0 °C -0,0 °C 51 % 93 % 1027,3 hPa 0,0 l/m² 0,0 km/h (0 Bft) N 0,67 h 68 W/m² -1,0 °C -0,0 °C 0,0 km/h (0 Bft)
09.04.2023 08:00 21,3 °C 2,5 °C 51 % 94 % 1027,4 hPa 0,0 l/m² 0,2 km/h (0 Bft) O-NO 0,98 h 230 W/m² 1,6 °C 2,5 °C 0,7 km/h (0 Bft)
09.04.2023 09:00 21,7 °C 5,6 °C 51 % 88 % 1027,6 hPa 0,0 l/m² 1,0 km/h (0 Bft) O-NO 1,02 h 405 W/m² 3,7 °C 5,6 °C 2,5 km/h (1 Bft)
09.04.2023 10:00 22,1 °C 8,5 °C 49 % 78 % 1027,7 hPa 0,0 l/m² 4,4 km/h (1 Bft) O-NO 1,00 h 548 W/m² 5,0 °C 8,4 °C 7,6 km/h (2 Bft)
09.04.2023 11:00 22,5 °C 9,9 °C 48 % 74 % 1027,6 hPa 0,0 l/m² 5,4 km/h (2 Bft) O 0,98 h 663 W/m² 5,4 °C 9,6 °C 9,1 km/h (2 Bft)
09.04.2023 12:00 22,8 °C 10,9 °C 48 % 71 % 1027,2 hPa 0,0 l/m² 4,8 km/h (1 Bft) S-SO 1,00 h 730 W/m² 5,9 °C 10,6 °C 8,3 km/h (2 Bft)
09.04.2023 13:00 23,0 °C 12,2 °C 48 % 67 % 1026,8 hPa 0,0 l/m² 4,1 km/h (1 Bft) W-NW 1,02 h 745 W/m² 6,3 °C 12,2 °C 7,1 km/h (2 Bft)
09.04.2023 14:00 23,2 °C 13,0 °C 48 % 63 % 1026,7 hPa 0,0 l/m² 2,1 km/h (1 Bft) W-SW 0,98 h 709 W/m² 6,0 °C 12,9 °C 4,2 km/h (1 Bft)
09.04.2023 15:00 23,2 °C 13,8 °C 48 % 60 % 1026,2 hPa 0,0 l/m² 3,3 km/h (1 Bft) O 1,02 h 607 W/m² 6,2 °C 13,7 °C 6,4 km/h (2 Bft)
09.04.2023 16:00 23,1 °C 14,5 °C 48 % 56 % 1025,7 hPa 0,0 l/m² 2,9 km/h (1 Bft) O 1,00 h 487 W/m² 5,8 °C 14,5 °C 5,7 km/h (2 Bft)
09.04.2023 17:00 22,9 °C 14,0 °C 48 % 57 % 1025,4 hPa 0,0 l/m² 1,9 km/h (1 Bft) O 1,00 h 324 W/m² 5,7 °C 14,0 °C 3,8 km/h (1 Bft)
09.04.2023 18:00 22,6 °C 13,9 °C 48 % 55 % 1025,4 hPa 0,0 l/m² 3,7 km/h (1 Bft) NO 1,00 h 150 W/m² 5,1 °C 13,9 °C 6,3 km/h (2 Bft)
09.04.2023 19:00 22,4 °C 12,1 °C 48 % 62 % 1025,3 hPa 0,0 l/m² 3,2 km/h (1 Bft) NO 0,18 h 29 W/m² 4,9 °C 12,0 °C 5,4 km/h (2 Bft)
09.04.2023 20:00 22,4 °C 7,3 °C 50 % 80 % 1025,4 hPa 0,0 l/m² 0,0 km/h (0 Bft) NO 0,00 h 0 W/m² 4,1 °C 7,3 °C 0,1 km/h (0 Bft)
09.04.2023 21:00 22,6 °C 5,1 °C 51 % 88 % 1025,7 hPa 0,0 l/m² 0,0 km/h (0 Bft) NO 0,00 h 0 W/m² 3,2 °C 5,1 °C 0,0 km/h (0 Bft)
09.04.2023 22:00 22,2 °C 3,9 °C 50 % 90 % 1025,8 hPa 0,0 l/m² 0,0 km/h (0 Bft) N 0,00 h 0 W/m² 2,4 °C 3,9 °C 0,0 km/h (0 Bft)
09.04.2023 23:00 22,0 °C 2,9 °C 50 % 91 % 1025,6 hPa 0,0 l/m² 0,7 km/h (0 Bft) N 0,00 h 0 W/m² 1,5 °C 2,9 °C 1,0 km/h (0 Bft)
Min-Datum _ 04.04.23 06.04.23 08.04.23 06.04.23 07.04.23 - 09.04.23 - - - 06.04.23 03.04.23 09.04.23
_ Min-Zeit 07:00 06:45 18:13 17:57 06:00 - 23:00 - - - 06:45 10:19 23:00
Minimum _ 20,8 °C -4,4 °C 45 % 36 % 1017,7 hPa - 0,0 km/h (0 Bft) - - - -5,6 °C -5,7 °C 0,0 km/h (0 Bft)
Max-Datum _ 09.04.23 09.04.23 09.04.23 09.04.23 03.04.23 08.04.23 03.04.23 - 09.04.23 05.04.23 08.04.23 09.04.23 03.04.23
_ Max-Zeit 14:54 16:37 04:00 08:20 10:55 01:08 11:40 - 08:12 12:31 12:34 16:37 11:55
Maximum _ 23,3 °C 15,1 °C 52 % 95 % 1032,4 hPa 0,6 l/m² 22,5 km/h
NO (4 Bft)
- 0,12 h 960 W/m² 7,4 °C 15,1 °C 32,2 km/h
NO (5 Bft)
Durchschnitt _ 21,4 °C 4,6 °C 49 % 74 % 1024,5 hPa #1,6 l/m² 4,6 km/h (1 Bft) N #78:07 h 181 W/m² 0,0 °C 4,0 °C 7,4 km/h (2 Bft)
© 2009 Mathias Hoßbach